User: anonymous   Login
Location: Unspecified
(0.0000°N, 0.0000°E)
Time: 04:04:52
(UTC+00:00)
Language:

FALCONSAT 3 - Orbit

View from above orbital plane
View from above orbital plane
View from above satellite
View from above satellite

Ground track
Ground track

The orbit data is extracted from the following two-line orbital elements,

1 30776U 07006E   18110.81849621  .00003790  00000-0  11288-3 0  9998
2 30776  35.4358 271.8949 0003725 244.6989 115.3352 15.34280371615503
Epoch (UTC): 20 April 2018 19:38:38
Eccentricity: 0.0003725
inclination: 35.4358°
perigee height: 460 km
apogee height: 465 km
right ascension of ascending node: 271.8949°
argument of perigee: 244.6989°
revolutions per day: 15.34280371
mean anomaly at epoch: 115.3352°
orbit number at epoch: 61550

The dashed part of the orbit path shows where the satellite is in the earth's shadow,  

DLR